Temp
-16 -16 -16 -16 -17 -17 -18 -18 -18 -19 -19 -19 -19 -20 -20 -20 -20 -20 -21 -21 -22 -22 -23 -23 -23 -24 -25 -26 -26 -26 -26 -26 -26 -27 -29 -30 -30 -31 -31 -31 -31 -31 -31
-16 -16 -16 -17 -17 -18 -18 -19 -19 -19 -19 -20 -20 -20 -20 -21 -21 -21 -21 -22 -22 -23 -24 -24 -24 -25 -26 -26 -26 -26 -27 -28 -29 -30 -31 -31 -32 -32 -32 -32 -32 -31 -31
-16 -16 -17 -17 -17 -18 -18 -19 -19 -19 -20 -20 -20 -20 -21 -21 -21 -22 -23 -23 -23 -24 -24 -25 -26 -26 -26 -27 -27 -28 -29 -30 -31 -31 -31 -32 -32 -33 -32 -32 -32 -32 -31
-16 -16 -17 -17 -18 -19 -19 -19 -20 -20 -20 -20 -21 -21 -21 -21 -22 -22 -23 -24 -24 -25 -25 -26 -27 -27 -28 -28 -29 -30 -31 -31 -31 -32 -32 -33 -33 -33 -33 -32 -32 -32 -32
-16 -17 -17 -17 -18 -19 -19 -19 -19 -20 -20 -20 -21 -21 -22 -21 -23 -23 -24 -25 -25 -26 -27 -27 -28 -29 -29 -30 -30 -31 -31 -32 -32 -33 -33 -33 -34 -33 -33 -32 -32 -32 -32
-17 -17 -17 -18 -18 -19 -19 -19 -19 -20 -20 -21 -21 -22 -22 -23 -24 -24 -24 -25 -26 -27 -27 -29 -29 -30 -30 -31 -31 -32 -32 -32 -33 -33 -33 -33 -34 -33 -33 -33 -32 -33 -33
-17 -17 -18 -18 -19 -19 -19 -20 -20 -20 -20 -21 -21 -23 -23 -23 -24 -25 -26 -26 -27 -28 -30 -30 -30 -30 -31 -31 -32 -32 -33 -33 -33 -33 -34 -34 -34 -33 -33 -33 -33 -33 -33
-17 -18 -18 -19 -20 -20 -20 -20 -20 -20 -21 -21 -22 -23 -23 -24 -25 -26 -27 -27 -29 -30 -30 -30 -30 -31 -31 -32 -32 -33 -33 -34 -34 -34 -34 -34 -34 -33 -33 -33 -33 -33 -34
-18 -18 -19 -20 -20 -20 -20 -20 -20 -21 -21 -22 -23 -24 -24 -25 -26 -27 -28 -29 -30 -30 -30 -30 -31 -31 -32 -32 -33 -33 -34 -34 -34 -34 -34 -34 -34 -34 -34 -34 -34 -34 -34
-18 -19 -20 -20 -20 -20 -20 -21 -21 -22 -23 -23 -24 -24 -25 -26 -27 -28 -29 -30 -30 -30 -31 -31 -31 -31 -32 -33 -33 -34 -34 -35 -35 -35 -35 -35 -35 -34 -34 -34 -34 -34 -34
-19 -20 -20 -20 -20 -20 -21 -21 -22 -23 -23 -24 -25 -25 -26 -27 -29 -29 -30 -30 -31 -31 -31 -31 -31 -32 -32 -33 -33 -34 -35 -35 -35 -35 -35 -35 -35 -35 -35 -34 -34 -34 -35
-20 -20 -20 -20 -21 -21 -22 -23 -23 -24 -24 -25 -25 -26 -27 -29 -30 -30 -30 -31 -31 -31 -31 -31 -32 -32 -32 -33 -34 -34 -35 -35 -35 -35 -35 -35 -36 -35 -35 -35 -35 -35 -35
-20 -21 -21 -21 -21 -22 -23 -24 -24 -24 -25 -25 -26 -27 -28 -30 -30 -31 -31 -31 -31 -31 -31 -32 -32 -33 -33 -33 -34 -35 -35 -35 -35 -36 -36 -36 -36 -36 -36 -36 -35 -35 -35
-21 -21 -21 -21 -22 -23 -24 -24 -24 -25 -25 -26 -27 -28 -30 -31 -31 -31 -31 -31 -31 -31 -32 -32 -32 -33 -33 -34 -34 -35 -35 -36 -36 -36 -36 -36 -36 -36 -36 -36 -36 -35 -35
-21 -21 -21 -22 -23 -24 -24 -24 -25 -26 -26 -27 -29 -30 -31 -31 -31 -32 -32 -32 -32 -32 -32 -32 -33 -34 -34 -34 -35 -35 -36 -36 -36 -36 -36 -36 -36 -36 -37 -37 -36 -36 -35
-21 -22 -23 -23 -24 -24 -25 -25 -26 -27 -28 -29 -31 -31 -31 -32 -32 -32 -32 -32 -32 -32 -32 -33 -34 -34 -34 -34 -35 -35 -36 -36 -36 -36 -36 -36 -36 -36 -37 -37 -37 -36 -36
-22 -23 -24 -24 -25 -25 -26 -26 -27 -28 -30 -31 -31 -32 -32 -32 -32 -32 -32 -32 -32 -32 -32 -33 -34 -34 -35 -35 -35 -36 -36 -36 -36 -36 -36 -36 -37 -37 -37 -37 -37 -37 -36
-23 -24 -25 -25 -26 -26 -27 -28 -29 -30 -31 -31 -31 -31 -32 -32 -32 -32 -32 -32 -33 -32 -33 -34 -34 -35 -35 -35 -35 -36 -36 -36 -36 -37 -37 -37 -37 -37 -37 -37 -37 -37 -37
-24 -25 -25 -26 -26 -27 -28 -30 -31 -32 -32 -32 -32 -32 -31 -31 -31 -32 -32 -32 -33 -34 -34 -35 -35 -35 -35 -35 -36 -36 -37 -37 -37 -37 -37 -37 -37 -37 -37 -37 -37 -37 -37
-25 -26 -26 -27 -28 -29 -31 -32 -32 -32 -32 -32 -31 -31 -31 -32 -32 -32 -32 -32 -33 -34 -34 -35 -35 -35 -36 -36 -36 -36 -37 -37 -37 -37 -37 -37 -37 -37 -37 -38 -38 -37 -37
-26 -26 -28 -29 -30 -31 -32 -32 -32 -32 -31 -31 -31 -32 -32 -32 -32 -32 -33 -33 -34 -34 -35 -36 -36 -36 -36 -36 -36 -36 -37 -37 -37 -37 -37 -37 -37 -37 -37 -37 -38 -37 -37
-27 -28 -30 -31 -32 -32 -32 -32 -32 -32 -32 -32 -32 -32 -33 -33 -33 -34 -34 -33 -34 -35 -36 -36 -36 -36 -37 -37 -36 -36 -37 -37 -37 -37 -37 -37 -37 -37 -37 -37 -37 -38 -37
-29 -30 -31 -32 -32 -32 -32 -32 -32 -32 -32 -33 -33 -33 -34 -34 -34 -34 -34 -34 -35 -35 -36 -36 -36 -37 -37 -37 -36 -37 -37 -37 -37 -37 -37 -37 -37 -37 -37 -37 -37 -37 -38
-31 -32 -32 -32 -32 -32 -33 -33 -33 -33 -34 -34 -34 -34 -34 -34 -34 -35 -35 -35 -36 -35 -36 -37 -37 -37 -37 -37 -37 -37 -38 -38 -37 -37 -37 -37 -37 -37 -37 -37 -37 -37 -37
-32 -32 -32 -32 -32 -32 -32 -34 -34 -34 -34 -34 -35 -35 -35 -35 -35 -35 -35 -35 -36 -37 -38 -38 -38 -38 -38 -38 -38 -38 -38 -38 -38 -37 -37 -37 -37 -37 -37 -37 -37 -37 -37
-32 -32 -32 -32 -32 -32 -33 -35 -35 -34 -35 -35 -36 -36 -35 -35 -35 -35 -35 -36 -37 -38 -38 -38 -38 -38 -38 -38 -38 -38 -38 -38 -38 -38 -38 -37 -37 -37 -37 -37 -37 -38 -37
Height
5736 5732 5729 5724 5719 5713 5708 5701 5694 5688 5681 5675 5669 5662 5655 5647 5638 5630 5621 5613 5604 5594 5584 5573 5561 5550 5539 5529 5520 5510 5499 5487 5478 5473 5460 5450 5442 5435 5429 5426 5422 5420 5416
5728 5724 5719 5714 5709 5703 5696 5690 5684 5678 5671 5664 5658 5650 5642 5633 5623 5614 5606 5598 5588 5578 5566 5554 5543 5533 5523 5514 5503 5491 5479 5468 5457 5451 5444 5435 5427 5421 5417 5415 5410 5406 5404
5720 5716 5712 5705 5699 5693 5687 5681 5675 5669 5662 5654 5645 5636 5628 5619 5610 5600 5590 5579 5569 5559 5548 5538 5528 5519 5508 5498 5486 5474 5463 5453 5443 5436 5431 5422 5416 5410 5407 5403 5399 5395 5391
5712 5707 5702 5696 5689 5682 5676 5671 5664 5657 5648 5640 5632 5622 5613 5605 5596 5585 5573 5562 5552 5542 5532 5523 5514 5503 5491 5481 5469 5458 5449 5440 5432 5425 5418 5412 5405 5400 5395 5392 5389 5383 5379
5701 5696 5690 5684 5677 5671 5664 5657 5651 5643 5635 5628 5620 5609 5600 5590 5579 5568 5558 5547 5535 5526 5518 5508 5497 5487 5476 5465 5455 5446 5437 5429 5422 5415 5408 5402 5396 5391 5386 5381 5376 5373 5368
5689 5685 5678 5670 5664 5656 5650 5644 5637 5630 5622 5615 5606 5595 5583 5571 5562 5552 5542 5532 5522 5513 5502 5493 5484 5474 5463 5453 5444 5435 5427 5420 5413 5407 5400 5394 5389 5383 5377 5371 5367 5363 5360
5677 5670 5663 5657 5651 5645 5638 5632 5625 5618 5609 5600 5591 5580 5569 5559 5548 5538 5528 5519 5509 5498 5490 5481 5472 5462 5451 5442 5433 5425 5418 5411 5405 5399 5392 5386 5381 5375 5369 5363 5358 5353 5350
5664 5659 5652 5645 5639 5632 5626 5619 5612 5604 5596 5585 5576 5565 5556 5545 5534 5524 5514 5504 5495 5487 5479 5470 5461 5451 5441 5431 5423 5415 5408 5401 5396 5389 5383 5378 5372 5366 5360 5355 5350 5346 5342
5654 5647 5640 5634 5627 5621 5615 5605 5598 5589 5580 5570 5560 5550 5540 5530 5520 5510 5500 5492 5484 5476 5468 5460 5451 5441 5430 5422 5414 5407 5400 5394 5388 5382 5376 5370 5364 5358 5353 5348 5343 5340 5337
5639 5633 5626 5621 5615 5607 5600 5592 5583 5574 5564 5555 5546 5534 5525 5514 5503 5495 5486 5478 5471 5464 5456 5447 5440 5431 5421 5413 5406 5399 5393 5387 5382 5376 5370 5364 5358 5352 5346 5341 5338 5334 5331
5625 5619 5614 5608 5600 5592 5584 5576 5567 5558 5550 5541 5531 5520 5509 5497 5488 5481 5473 5466 5458 5451 5442 5435 5428 5419 5411 5404 5397 5392 5386 5381 5376 5371 5366 5360 5353 5346 5340 5334 5331 5328 5325
5612 5607 5600 5592 5585 5576 5568 5560 5551 5542 5534 5524 5515 5505 5491 5482 5474 5466 5459 5453 5445 5439 5430 5423 5416 5408 5402 5395 5389 5384 5380 5375 5370 5365 5360 5355 5348 5342 5335 5329 5326 5322 5319
5599 5592 5584 5577 5568 5560 5552 5544 5535 5525 5516 5507 5495 5486 5477 5467 5460 5452 5446 5439 5432 5426 5418 5411 5404 5397 5391 5386 5380 5376 5372 5368 5364 5359 5354 5349 5343 5338 5332 5326 5320 5317 5313
5583 5576 5569 5560 5552 5544 5536 5528 5519 5508 5496 5485 5475 5466 5459 5453 5446 5438 5432 5426 5418 5412 5405 5399 5393 5386 5380 5376 5371 5367 5364 5361 5356 5352 5348 5343 5338 5333 5328 5323 5317 5312 5309
5568 5560 5552 5544 5536 5528 5519 5509 5498 5487 5476 5467 5458 5448 5442 5438 5430 5421 5416 5410 5404 5398 5392 5386 5380 5374 5368 5365 5361 5358 5356 5353 5349 5345 5341 5337 5333 5328 5324 5319 5314 5308 5305
5551 5543 5535 5527 5518 5508 5499 5492 5478 5467 5458 5447 5439 5431 5427 5419 5414 5407 5399 5393 5387 5381 5377 5372 5367 5361 5356 5354 5351 5349 5347 5345 5341 5338 5335 5331 5327 5323 5319 5315 5311 5306 5301
5535 5526 5517 5509 5499 5489 5479 5467 5460 5456 5440 5433 5422 5413 5406 5402 5394 5388 5382 5375 5370 5363 5361 5356 5351 5347 5344 5341 5340 5339 5338 5336 5334 5331 5329 5325 5322 5318 5314 5311 5307 5303 5297
5518 5510 5501 5491 5481 5470 5459 5448 5436 5427 5422 5421 5412 5400 5391 5381 5375 5368 5362 5354 5346 5343 5341 5338 5335 5332 5331 5329 5328 5328 5328 5327 5326 5324 5322 5319 5316 5312 5310 5307 5304 5300 5295
5501 5491 5481 5470 5459 5448 5437 5426 5416 5408 5400 5393 5389 5384 5372 5365 5357 5348 5341 5336 5332 5328 5325 5321 5320 5318 5317 5317 5317 5317 5318 5318 5317 5317 5315 5312 5310 5307 5304 5302 5299 5297 5293
5481 5471 5461 5450 5439 5428 5418 5408 5399 5390 5381 5373 5365 5357 5349 5341 5336 5329 5322 5317 5314 5311 5307 5307 5305 5304 5304 5305 5305 5306 5307 5308 5308 5309 5308 5306 5303 5301 5299 5297 5295 5293 5291
5464 5452 5440 5430 5419 5409 5399 5389 5379 5369 5360 5351 5342 5334 5326 5319 5315 5310 5305 5302 5300 5296 5294 5295 5294 5293 5293 5293 5294 5295 5297 5298 5300 5300 5300 5299 5298 5295 5293 5291 5290 5289 5288
5442 5432 5422 5411 5401 5391 5380 5368 5357 5346 5336 5329 5322 5315 5307 5301 5296 5293 5290 5288 5286 5283 5282 5281 5281 5283 5282 5282 5283 5284 5286 5289 5291 5292 5292 5292 5291 5290 5288 5287 5285 5285 5284
5424 5414 5403 5392 5382 5371 5359 5347 5336 5326 5317 5308 5301 5296 5291 5286 5281 5278 5275 5273 5271 5269 5269 5269 5271 5271 5271 5271 5272 5274 5276 5280 5282 5283 5284 5285 5285 5284 5283 5282 5281 5280 5280
5406 5395 5385 5374 5362 5350 5338 5327 5316 5306 5298 5291 5285 5279 5274 5271 5267 5263 5261 5259 5257 5255 5257 5258 5259 5260 5260 5261 5262 5265 5268 5271 5273 5275 5276 5277 5278 5278 5278 5277 5276 5275 5275
5387 5376 5365 5352 5340 5328 5316 5305 5297 5289 5282 5275 5268 5263 5258 5254 5250 5248 5246 5244 5244 5245 5246 5247 5248 5250 5251 5252 5254 5256 5259 5262 5264 5266 5267 5268 5269 5270 5271 5271 5271 5269 5269
5368 5357 5344 5332 5319 5307 5297 5289 5281 5274 5266 5258 5251 5245 5241 5237 5233 5231 5229 5229 5230 5232 5235 5236 5237 5239 5241 5242 5244 5246 5249 5252 5254 5255 5257 5258 5260 5261 5263 5264 5264 5264 5263
Wind_Speed
39 40 42 43 43 45 51 53 52 54 58 58 57 60 63 63 66 68 71 73 75 78 81 83 85 85 76 72 76 80 82 78 75 71 71 66 61 57 53 48 45 43 44
39 41 41 42 46 51 52 53 53 59 57 58 60 62 61 64 69 73 76 78 80 81 81 83 85 79 72 76 78 73 70 73 72 67 60 56 54 51 49 43 43 42 42
39 38 41 44 51 52 52 53 58 56 58 58 59 61 65 67 72 76 76 78 83 83 85 82 76 76 78 72 67 66 68 67 63 58 54 52 49 48 44 41 40 40 40
43 43 45 51 52 48 52 57 56 56 57 58 61 65 69 73 76 77 80 81 84 86 85 79 78 74 65 61 62 62 62 59 56 52 49 48 46 44 43 40 39 38 36
45 46 50 51 51 51 53 56 56 56 57 60 64 70 73 73 76 81 80 86 88 85 80 77 67 59 55 57 58 58 58 55 50 47 46 44 43 41 41 40 39 35 35
46 47 50 51 52 54 56 56 55 57 57 62 66 73 71 78 79 80 85 87 79 79 77 61 54 55 56 57 57 55 53 48 46 44 43 42 40 39 39 38 36 34 31
49 52 52 53 55 54 52 53 55 63 63 69 68 70 76 82 80 82 83 83 77 65 57 55 53 56 57 57 55 53 48 46 44 42 40 39 37 37 36 34 34 32 31
52 53 54 51 51 53 54 56 60 57 59 75 67 72 76 77 78 80 77 75 61 58 56 53 54 56 56 55 52 49 45 43 41 40 38 38 37 36 34 31 29 28 29
53 53 49 49 51 52 56 55 69 62 72 69 70 72 76 77 78 72 72 63 58 57 53 53 55 56 54 52 49 45 42 41 39 39 39 38 37 35 31 26 27 25 25
54 51 48 50 54 58 59 61 65 65 65 67 69 72 75 75 72 67 61 58 56 54 53 54 55 55 53 49 45 42 39 38 37 36 36 36 35 32 29 26 23 22 22
53 49 50 54 57 61 62 63 64 65 67 68 70 72 75 71 65 59 57 55 55 53 53 55 56 55 52 46 43 40 37 36 35 34 34 34 34 33 29 26 23 21 22
48 50 54 57 60 62 62 62 64 66 68 70 72 74 73 65 60 59 57 57 56 54 55 56 56 52 50 44 41 38 35 35 34 34 32 32 31 32 31 28 24 23 20
51 54 57 60 62 62 63 65 67 70 73 76 77 73 66 60 58 57 57 58 56 55 56 57 55 50 48 43 39 36 34 35 34 32 32 32 30 29 29 31 27 22 22
55 58 61 63 63 65 66 69 73 76 78 78 75 69 62 57 56 57 58 57 59 58 58 58 55 47 47 42 38 35 34 34 33 31 30 31 30 29 27 29 29 25 21
60 63 65 65 66 68 72 75 78 79 78 76 70 64 59 56 57 60 60 60 60 60 61 59 54 46 45 41 37 34 34 33 32 29 28 29 29 28 27 26 28 25 19
65 67 67 68 71 74 76 78 79 77 75 70 64 60 58 60 59 60 62 63 64 65 65 59 51 45 44 40 36 33 33 31 30 28 27 27 27 27 26 25 26 25 21
69 69 69 71 74 77 80 81 80 74 67 62 62 62 62 62 63 65 67 69 69 69 63 56 49 44 42 39 35 32 31 30 28 27 26 26 26 25 24 23 23 25 22
70 70 72 74 78 80 80 80 76 69 63 58 58 62 65 68 69 71 71 70 69 65 58 51 45 42 40 38 35 31 31 29 27 26 25 24 25 25 23 23 21 22 23
71 73 76 80 81 81 79 74 68 67 67 66 63 62 67 69 70 67 65 61 57 57 51 47 40 38 38 37 34 31 31 31 28 26 24 24 24 22 22 23 20 19 21
74 78 81 80 78 74 71 69 71 72 70 69 70 70 69 66 61 58 56 54 50 47 46 38 38 37 36 34 34 32 31 31 29 26 23 23 23 22 21 21 20 17 17
79 80 78 77 74 71 70 72 74 74 74 72 69 63 60 59 55 50 44 42 40 39 38 37 37 32 31 32 33 32 31 31 27 26 23 22 21 19 19 20 19 16 14
77 76 75 73 70 69 71 75 75 72 67 63 61 59 56 53 49 44 43 40 39 36 35 38 32 30 29 30 31 32 30 29 27 26 25 23 21 19 18 18 16 16 13
73 73 72 70 72 75 77 73 71 68 66 62 57 53 49 45 43 42 42 41 38 37 38 35 31 28 30 27 28 29 30 28 27 28 27 25 23 20 18 17 16 15 15
71 71 71 76 79 78 77 74 69 65 59 56 53 50 47 44 43 42 40 38 36 39 33 35 34 34 30 25 26 26 28 29 29 30 29 28 25 23 20 19 20 18 16
71 73 80 80 80 80 74 66 61 58 57 55 51 50 48 46 43 41 39 37 35 35 38 39 39 37 31 25 27 28 30 29 29 30 31 30 30 28 24 23 23 21 19
75 81 79 82 78 74 66 57 56 56 54 53 52 48 45 44 43 42 41 38 35 38 36 33 35 34 27 27 32 33 34 33 32 32 32 31 30 31 29 27 23 19 19
Wind_Direction
301 301 300 295 291 293 298 302 303 301 306 305 304 302 301 302 302 303 302 302 304 305 307 306 305 307 313 312 306 307 311 309 303 296 296 300 299 295 291 285 281 280 279
297 299 300 294 289 290 298 300 297 303 303 301 300 301 303 305 303 302 303 303 305 308 310 311 312 312 307 306 310 311 304 300 302 306 306 302 299 295 291 290 287 285 281
303 299 291 286 287 289 293 292 297 299 298 299 300 302 303 301 301 304 304 306 308 309 310 313 314 306 306 314 311 302 302 306 308 308 305 303 300 295 294 292 289 286 284
299 292 285 282 287 289 290 294 296 298 301 303 305 304 303 304 305 305 305 309 311 313 314 313 306 311 315 309 304 307 310 311 310 308 307 305 302 300 297 294 292 291 290
289 291 293 298 299 295 293 296 301 303 304 306 307 305 304 306 306 307 307 310 313 316 311 308 316 316 312 311 311 312 312 311 309 308 307 307 304 300 300 298 296 294 292
302 301 299 298 297 296 301 302 303 303 304 306 307 307 308 311 311 308 306 311 313 308 310 319 316 320 319 314 312 313 312 310 308 307 306 305 303 301 301 299 295 293 290
303 303 302 300 300 301 301 303 302 304 296 304 306 303 302 307 307 306 309 310 307 315 317 317 318 321 317 313 312 312 311 309 309 308 309 306 305 304 305 299 295 294 290
301 300 300 298 296 300 301 299 306 306 292 301 301 297 302 305 306 306 307 307 314 319 318 316 319 320 317 313 312 312 310 309 311 314 314 312 311 310 308 301 296 293 289
299 299 296 294 297 300 306 295 302 295 298 303 305 305 305 305 304 305 306 310 314 319 314 315 319 321 318 314 312 312 309 311 312 315 315 315 316 314 309 302 300 294 287
301 301 297 299 299 303 305 302 301 303 303 304 304 304 304 303 305 307 305 308 313 314 312 316 319 321 320 314 313 312 309 310 313 316 317 320 320 320 314 305 303 294 286
301 299 299 302 305 306 306 304 301 302 303 305 305 304 303 306 305 301 300 307 309 310 312 315 319 321 320 315 313 311 308 307 310 313 316 319 322 325 323 313 307 304 290
298 300 303 306 307 306 304 301 301 303 304 305 306 308 306 305 302 300 299 305 308 309 311 314 318 319 317 313 311 309 305 304 307 309 312 316 320 323 329 323 312 306 297
301 305 308 309 308 306 303 302 303 304 305 307 309 309 305 301 299 299 300 304 306 307 309 311 315 315 312 310 307 306 301 301 305 307 311 313 318 321 328 330 321 306 306
304 306 309 311 309 306 303 302 303 306 308 309 308 305 303 300 299 298 301 303 304 305 306 309 312 309 305 305 302 300 297 299 303 306 309 311 315 319 323 329 325 314 305
306 308 309 308 306 304 303 304 307 309 308 307 305 304 301 299 299 300 301 302 302 303 304 306 307 301 297 299 295 294 293 295 299 304 308 309 311 315 318 323 329 322 305
307 308 307 306 305 305 306 307 309 308 307 306 305 303 300 300 300 299 300 300 301 301 303 303 300 294 290 291 289 287 288 290 295 301 304 307 309 313 314 318 327 330 317
308 307 306 305 305 306 307 309 309 308 307 306 304 303 302 301 300 300 299 299 299 298 299 297 294 287 283 284 283 281 280 283 291 297 299 305 307 312 314 313 320 333 330
306 305 305 305 306 308 309 309 309 309 307 304 301 300 300 300 299 298 298 297 297 298 298 295 290 282 277 277 277 274 271 274 283 293 297 303 303 303 314 313 313 327 336
305 306 307 307 309 310 311 310 309 309 307 306 304 302 300 298 298 296 295 295 292 291 290 289 284 277 273 271 269 268 262 266 272 286 292 301 302 299 304 314 310 318 334
306 307 308 310 311 311 309 306 307 307 306 304 302 301 300 299 298 296 294 292 291 288 288 287 284 276 270 268 265 263 261 261 266 277 287 297 304 301 298 301 310 307 326
307 310 312 312 312 309 307 307 308 307 305 304 303 302 301 301 299 296 294 294 291 286 281 281 279 273 267 266 264 262 262 259 262 269 280 294 299 302 304 299 297 298 311
311 312 313 313 312 311 311 312 310 309 308 307 305 303 301 298 296 293 293 293 290 281 279 283 273 268 280 269 263 259 258 258 257 262 271 283 290 297 302 306 289 289 284
312 315 315 314 314 313 314 313 313 311 310 308 307 305 302 297 294 293 292 292 287 281 276 279 274 275 287 266 260 253 252 253 255 258 263 272 281 289 293 301 301 289 279
315 315 315 316 316 315 315 314 312 311 310 309 306 304 301 298 294 291 289 287 280 279 274 270 275 278 289 264 256 245 250 252 252 255 258 264 268 275 284 291 300 295 283
317 317 318 318 318 317 315 312 311 310 309 308 306 304 301 297 292 288 285 280 268 263 263 266 270 274 276 249 244 244 249 252 254 256 256 262 263 264 272 281 291 287 286
318 320 319 320 319 319 316 314 312 312 311 309 308 306 303 298 293 286 280 273 257 248 254 252 260 268 259 248 240 246 248 249 254 253 253 256 260 260 265 270 280 280 282